www.pogodaiklimat.ru
ПОГОДА в Кошице

Архив погоды в Кошице (Словакия)

Время
(UTC), дата
04 7.08
05 7.08
06 7.08
07 7.08
08 7.08
09 7.08
10 7.08
11 7.08
12 7.08
13 7.08
14 7.08
15 7.08
16 7.08
17 7.08
18 7.08
19 7.08
20 7.08
21 7.08
22 7.08
23 7.08
00 8.08
01 8.08
02 8.08
03 8.08
04 8.08
05 8.08
06 8.08
07 8.08
08 8.08
09 8.08
10 8.08
11 8.08
12 8.08
13 8.08
14 8.08
15 8.08
16 8.08
17 8.08
18 8.08
19 8.08
20 8.08
21 8.08
22 8.08
23 8.08
00 9.08
01 9.08
02 9.08
03 9.08
04 9.08
05 9.08
06 9.08
07 9.08
08 9.08
09 9.08
10 9.08
11 9.08
12 9.08
13 9.08
14 9.08
15 9.08
16 9.08
17 9.08
18 9.08
19 9.08
20 9.08
21 9.08
22 9.08
23 9.08
00 10.08
01 10.08
02 10.08
03 10.08
04 10.08
05 10.08
06 10.08
07 10.08
08 10.08
09 10.08
10 10.08
11 10.08
12 10.08
13 10.08
14 10.08
15 10.08
16 10.08
17 10.08
18 10.08
19 10.08
20 10.08
21 10.08
22 10.08
23 10.08
00 11.08
01 11.08
02 11.08
03 11.08
04 11.08
05 11.08
06 11.08
07 11.08
08 11.08
09 11.08
10 11.08
11 11.08
12 11.08
13 11.08
14 11.08
15 11.08
16 11.08
17 11.08
18 11.08
19 11.08
20 11.08
21 11.08
22 11.08
23 11.08
00 12.08
01 12.08
02 12.08
03 12.08
04 12.08
05 12.08
06 12.08
07 12.08
08 12.08
09 12.08
10 12.08
11 12.08
12 12.08
13 12.08
14 12.08
15 12.08
16 12.08
17 12.08
18 12.08
19 12.08
20 12.08
21 12.08
22 12.08
23 12.08
00 13.08
01 13.08
02 13.08
03 13.08
04 13.08
05 13.08
06 13.08
07 13.08
08 13.08
09 13.08
10 13.08
11 13.08
12 13.08
13 13.08
14 13.08
15 13.08
16 13.08
17 13.08
18 13.08
19 13.08
20 13.08
21 13.08
22 13.08
00 14.08
01 14.08
02 14.08
03 14.08
04 14.08
Ветер
(напр.,м/с)
Видим. Явления Облачность Т
(С)
Тd
(С)
f
(%)
Тe
(С)
Тes
(С)
Комфортность P
(гПа)
Po
(гПа)
Тmin
(С)
Tmax
(С)
R
(мм)
R24
(мм)
S
(см)
С 11 30 км 8/0
[Ac As]
+17.7 +9.9 60 +16 +16 1020.0 992.9
С 12 40 км 8/0
[Ac As]
+17.8 +10.4 62 +16 +16 1020.2 993.1
С 12 40 км 8/0 2000 м
[Ac As]
+18.4 +10.0 58 +17 +17 1020.6 993.5 +17.7
С 11 40 км 6/0
[Ac As]
+18.8 +9.3 54 +18 +18 1020.7 993.6
С 11 40 км 6/0
[Ac As]
+20.1 +9.1 49 +20 +21 1020.7 993.8
С 12 40 км 6/0 2000 м
[Ac As]
+20.3 +9.3 49 +21 +21 комфорт 1020.6 993.7
С 11 40 км 6/0
[Ac trans Ci sp]
+22.0 +9.6 45 +24 +24 комфорт 1020.2 993.4
С 12 40 км 4/0
[Ac trans Ci sp]
+23.5 +9.5 41 +24 +24 комфорт 1019.8 993.2
С 11 40 км 1/0
[Ci sp]
+24.3 +9.1 38 +25 +25 комфорт 1019.2 992.7
С 10 40 км 1/0
[Ci sp]
+24.6 +9.8 39 +25 +26 комфорт 1019.1 992.6
С 10 40 км 1/0
[Ci fib]
+24.7 +9.8 39 +26 +26 жарко 1018.6 992.1
С 10 40 км 1/0
[Ci sp]
+24.2 +9.8 40 +25 +25 комфорт 1018.4 991.9
С 10 40 км 1/0
[Ci sp]
+23.8 +9.4 40 +25 +25 комфорт 1018.2 991.7
С 9 40 км 1/0
[Ci sp]
+22.9 +9.0 41 +24 +24 комфорт 1018.6 992.0
С 8 40 км 1/0
[Ci fib]
+21.9 +8.8 43 +23 +23 комфорт 1018.6 991.9 +25.4
С 7 40 км 1/0
[Ac trans]
+21.3 +7.9 42 +22 +22 комфорт 1019.0 992.2
С 8 40 км 1/0
[Ac trans Ci fib]
+20.8 +7.8 43 +22 +22 комфорт 1019.2 992.3
С 8 40 км 1/0
[Ac trans Ci fib]
+20.8 +7.4 42 +22 +22 комфорт 1019.2 992.3
С 7 40 км 1/0
[Ac trans Ci fib]
+20.3 +7.0 42 +21 +21 комфорт 1019.2 992.3
С 6 40 км 1/0
[Ci fib]
+20.0 +6.4 41 +20 +20 1019.1 992.2
С 6 40 км 1/0
[Ci fib]
+19.6 +6.7 43 +20 +20 1019.1 992.1
С 5 40 км 1/0
[Ci fib]
+19.2 +7.3 46 +20 +20 1018.9 991.9
С 6 40 км 1/0
[Ci fib]
+18.9 +8.0 49 +19 +19 1018.8 991.8
С 5 40 км 3/0
[Ac trans Ci fib]
+18.6 +8.0 50 +19 +19 1019.2 992.1
С 7 40 км 3/0
[Ac trans Ci fib]
+18.5 +8.2 51 +18 +18 1019.2 992.1
С 7 40 км 1/0
[Ac trans Ci fib]
+19.4 +8.7 50 +20 +20 1019.4 992.4
С 8 40 км 6/0
[Ac trans]
+20.0 +9.3 50 +21 +21 комфорт 1019.7 992.8 +18.3
С 7 40 км 6/0
[Ac trans Ci fib]
+20.0 +9.6 51 +21 +22 комфорт 1019.7 992.8
С 8 40 км 6/0
[Ac trans Ci sp]
+22.8 +11.2 48 +25 +26 комфорт 1019.6 992.9
С 8 40 км 8/0
[Ac trans Cs]
+23.7 +10.8 44 +25 +27 комфорт 1019.6 993.0
С 8 40 км 8/0
[Ac trans Ci sp]
+24.3 +11.6 45 +26 +28 жарко 1019.3 992.8
С 7 40 км 8/0
[Ac trans Cs]
+24.7 +11.7 44 +26 +29 жарко 1019.4 992.9
С 9 40 км 8/0
[Ac trans Cs]
+25.2 +12.1 44 +27 +28 жарко 1018.9 992.5
С 9 40 км 8/0
[Ac trans Cs]
+24.9 +12.2 45 +27 +27 жарко 1018.8 992.4
С 9 40 км 8/1 1500 м
[Cu med, cong Ac trans Cs]
+24.9 +13.2 48 +27 +27 жарко 1018.9 992.5
С 10 40 км 8/0
[Ac trans Cs]
+23.3 +12.6 51 +26 +26 жарко 1019.4 992.8
С 9 40 км 9/0
[Ac trans Cs]
+22.0 +12.8 56 +25 +25 комфорт 1019.7 993.0
С 8 40 км 9/0
[Ac trans Ci sp]
+21.1 +13.0 60 +23 +23 комфорт 1020.3 993.5
С 9 40 км 9/0
[Ac As]
+20.7 +12.9 61 +23 +23 комфорт 1020.6 993.8 +25.9
С 9 30 км 9/1 1050 м
[Sc Ac As]
+20.5 +13.0 62 +22 +22 комфорт 1020.8 993.9
С 9 20 км слаб. дождь 9/1 1500 м
[Sc Ac As]
+20.3 +12.6 61 +22 +22 комфорт 1020.7 993.8
С 7 20 км {дождь} 8/0
[Ac As]
+20.3 +12.0 59 +22 +22 комфорт 1021.0 994.1
С 8 20 км 8/0
[Ac As]
+20.5 +12.0 58 +22 +22 комфорт 1021.1 994.2
С 8 20 км 8/0
[Ac As]
+20.2 +12.0 59 +21 +21 комфорт 1020.9 994.0
С 6 20 км {дождь} 8/0
[Ac As]
+19.8 +12.1 61 +21 +21 комфорт 1020.8 993.9 0.0
С 7 35 км 8/0
[Ac As]
+19.8 +11.6 59 +21 +21 комфорт 1020.8 993.8
С 8 35 км 8/0
[Ac As]
+19.6 +10.9 57 +20 +20 1020.7 993.7
С 8 35 км 8/0
[Ac As]
+19.4 +10.9 58 +20 +20 1020.7 993.7
С 8 30 км 9/0
[As op]
+19.2 +10.8 58 +19 +19 1020.9 993.9
С 9 30 км 8/0
[Ac trans]
+19.2 +11.5 61 +19 +20 1020.8 993.8
С 9 30 км 3/0
[Ac trans]
+20.0 +12.0 60 +21 +21 комфорт 1021.1 994.2 +19.0
С 6 30 км 3/0
[Ac trans Ci fib]
+20.6 +12.3 59 +23 +25 комфорт 1021.2 994.3
С 8 30 км 5/1 1500 м
[Cu hum Ac trans Ci fib]
+22.4 +12.9 55 +25 +26 комфорт 1021.4 994.7
С 9 30 км 6/1 1500 м
[Cu hum Ac trans Ci fib]
+22.2 +12.5 54 +25 +26 комфорт 1021.6 994.9
С 10 30 км 6/1 1500 м
[Cu hum Ac trans Ci fib]
+23.0 +12.4 51 +26 +26 жарко 1021.7 995.0
С 9 30 км 5/1 1500 м
[Cu hum Ac trans Ci fib]
+24.7 +12.3 46 +26 +28 жарко 1021.3 994.8
С 9 30 км 1/1 1500 м
[Cu hum Ac trans]
+24.5 +11.1 43 +26 +27 жарко 1021.2 994.7
С 10 30 км 1/1 1500 м
[Cu hum]
+24.7 +10.6 41 +26 +26 жарко 1021.1 994.6
С 11 30 км 1/1 1500 м
[Cu Sc]
+23.8 +10.2 42 +25 +25 комфорт 1021.1 994.5
С 10 30 км 1/1 1500 м
[Sc diur, vesp]
+24.0 +8.8 38 +25 +25 комфорт 1021.4 994.8
С 9 30 км 1/1 1500 м
[Cu Sc]
+23.6 +8.5 38 +24 +24 комфорт 1021.7 995.0
С 9 30 км 1/1 1500 м
[Sc diur, vesp]
+22.4 +8.9 42 +24 +24 комфорт 1022.1 995.3
С 8 30 км 1/1 1500 м
[Sc diur, vesp]
+21.2 +9.2 46 +22 +22 комфорт 1022.6 995.7 +25.4
С 7 30 км 1/1 1500 м
[Sc]
+20.8 +9.7 49 +22 +22 комфорт 1023.0 996.1
С 7 30 км ясно +19.9 +9.8 52 +21 +21 комфорт 1023.4 996.4
С 5 30 км ясно +18.9 +9.7 55 +19 +19 1023.5 996.4
С 6 30 км ясно +18.9 +9.7 55 +19 +19 1023.6 996.5
С 7 30 км ясно +18.8 +9.9 56 +19 +19 1023.3 996.2
С 6 30 км ясно +18.3 +9.9 58 +18 +18 1023.0 995.8
С 6 30 км ясно +18.0 +9.9 59 +17 +17 1022.8 995.6
С 8 30 км ясно +17.7 +9.6 59 +17 +17 1022.9 995.7
С 8 35 км ясно +17.3 +10.0 62 +16 +16 1023.0 995.8
С 6 35 км 1/0
[Ac trans]
+17.5 +10.2 62 +17 +17 1023.2 996.0
С 6 40 км ясно +18.7 +10.5 59 +19 +19 1023.0 995.9
С 9 40 км ясно +20.1 +10.5 54 +21 +21 комфорт 1023.0 996.0 +16.9
С 10 40 км 1/1 1500 м
[Cu hum]
+21.1 +9.7 48 +22 +23 комфорт 1023.0 996.1
С 10 40 км 1/1 1440 м
[Cu hum]
+22.6 +9.4 43 +24 +25 комфорт 1022.9 996.1
С 10 40 км 1/1 1500 м
[Cu hum]
+23.9 +9.9 41 +25 +26 комфорт 1022.4 995.8
С 8 40 км 4/4 1500 м
[Cu hum]
+24.5 +9.7 39 +25 +27 комфорт 1022.4 995.8
С 8 40 км 4/4 1500 м
[Cu hum]
+25.7 +9.6 36 +26 +28 жарко 1022.0 995.5
С 9 40 км 4/4 1500 м
[Cu hum]
+25.9 +9.3 35 +26 +27 жарко 1022.1 995.6
С 8 40 км 4/4 1500 м
[Cu hum]
+25.9 +8.9 34 +26 +27 жарко 1021.4 995.0
С 8 40 км 3/3 1500 м
[Cu hum]
+26.4 +7.5 30 +26 +27 жарко 1020.9 994.5
СВ 7 40 км 3/3 1500 м
[Cu hum]
+26.2 +8.7 33 +26 +27 жарко 1020.7 994.3
С 9 40 км 3/3 1500 м
[Cu hum]
+25.3 +9.2 36 +26 +26 жарко 1020.9 994.4
СВ 5 40 км 4/4 1500 м
[Cu hum Ac trans]
+23.3 +10.4 44 +25 +25 комфорт 1021.6 994.9
СВ 5 30 км 3/3 1500 м
[Sc diur, vesp Ac trans]
+21.9 +10.4 48 +24 +24 комфорт 1021.9 995.1 +26.8
С 4 30 км 3/3 1500 м
[Sc diur, vesp]
+20.4 +10.0 51 +22 +22 комфорт 1022.6 995.6
С 5 30 км 1/1 1500 м
[Sc]
+18.8 +10.4 58 +19 +19 1022.8 995.7
С 3 30 км ясно +19.2 +10.5 57 +20 +20 1022.8 995.7
1 30 км ясно +18.2 +10.3 60 +20 +20 1022.6 995.4
С 2 30 км 5/0
[Ac trans]
+15.4 +10.4 72 +15 +15 1022.9 995.5
С 3 30 км 4/0
[Ac trans]
+17.5 +10.4 63 +18 +18 1022.2 995.0
СВ 2 30 км 3/0
[Ac trans]
+16.4 +10.3 67 +17 +17 1022.2 994.9
СВ 2 30 км 1/0
[Ac trans]
+16.3 +10.2 67 +16 +16 1021.9 994.6
С 6 30 км 1/0
[Ac trans]
+16.4 +10.0 66 +15 +15 1021.7 994.4
С 4 40 км 1/0
[Ac lent]
+16.5 +9.9 65 +16 +16 1021.8 994.5
СВ 5 40 км 1/0
[Ac lent]
+15.8 +10.4 70 +15 +15 1022.3 994.9
С 8 40 км 1/1 1050 м
[Cu hum Ac lent]
+19.8 +10.8 56 +21 +21 комфорт 1021.6 994.6 +14.8
С 7 40 км 3/1 1200 м
[Cu hum Ac lent]
+20.6 +10.1 51 +22 +23 комфорт 1021.4 994.5
С 6 40 км 4/1 1200 м
[Cu med, cong Ac lent]
+21.1 +10.6 51 +23 +25 комфорт 1021.4 994.5
С 8 40 км 6/3 1300 м
[Cu med, cong Ac As]
+21.8 +10.3 48 +24 +25 комфорт 1021.0 994.2
С 8 40 км 6/3 1500 м
[Cu med, cong Ac As]
+23.6 +10.3 43 +25 +26 комфорт 1020.5 993.9
С 9 40 км 8/4 1500 м
[Cu med, cong Ac lent]
+24.4 +10.3 41 +25 +26 комфорт 1019.6 993.1
СВ 7 40 км 8/4 1500 м
[Cu med, cong Ac lent]
+24.7 +10.6 41 +26 +27 жарко 1019.1 992.6
СВ 10 25 км гроза, ливневой дождь 8/5 1000 м
[Cb cap Ac cuf Ci ing]
+23.1 +10.2 44 +25 +25 комфорт 1019.6 993.0
С 6 30 км в посл. час гроза {ливн. дождь} 8/4 1000 м
[Cu med, cong Ac cuf Ci ing]
+18.8 +13.2 70 +19 +20 1019.9 992.9
С 7 40 км {гроза, ливн. дождь} 6/3 1200 м
[Cu med, cong Ac cuf Ci sp]
+20.2 +11.4 57 +21 +22 комфорт 1019.4 992.5
С 7 40 км 4/1 1500 м
[Cu med, cong Ac lent]
+21.5 +11.0 51 +23 +24 комфорт 1018.6 991.9
С 8 40 км 3/1 1500 м
[Cu med, cong Ac cuf Ci ing]
+21.3 +11.6 54 +23 +23 комфорт 1018.4 991.7
С 7 40 км {гроза, ливн. дождь} 3/1 1500 м
[Cu hum Ac cuf Ci sp]
+20.3 +11.8 58 +22 +22 комфорт 1018.5 991.7 +25.8 0.3
С 6 40 км 3/0
[Ac trans]
+19.6 +11.6 60 +21 +21 комфорт 1019.2 992.3
С 8 40 км 1/0
[Ac trans]
+18.5 +10.6 60 +18 +18 1019.4 992.4
С 7 40 км 1/0
[Ac trans]
+18.1 +10.2 60 +17 +17 1019.5 992.4
С 6 40 км 1/0
[Ac trans]
+17.6 +10.2 62 +17 +17 1019.9 992.8
С 6 40 км 1/0
[Ac trans]
+17.1 +10.2 64 +16 +16 1019.9 992.7
С 5 40 км 1/0
[Ac trans]
+16.9 +10.5 66 +16 +16 1019.7 992.5
С 5 40 км 1/0
[Ac trans]
+16.6 +10.9 69 +16 +16 1019.5 992.3
С 5 40 км 1/0
[Ac trans]
+16.4 +10.9 70 +15 +15 1019.4 992.2
С 5 40 км ясно +16.0 +11.0 72 +15 +15 1019.4 992.1
С 4 40 км ясно +15.8 +10.8 72 +15 +15 1019.2 991.9
1 40 км 1/0
[Ci fib]
+17.2 +11.3 68 +18 +20 1019.2 992.1
С 6 40 км 1/0
[Ci fib]
+18.5 +11.1 62 +18 +20 1019.5 992.5 +15.7 0.4
С 6 40 км 3/0
[Ac trans Ci fib]
+20.7 +11.6 56 +23 +25 комфорт 1019.4 992.6
С 6 40 км 1/0
[Ac trans Ci fib]
+22.4 +11.5 50 +25 +28 комфорт 1019.0 992.3
С 4 40 км 1/0
[Ac trans Ci fib]
+24.1 +11.5 45 +26 +34 жарко 1018.5 992.0
СВ 3 40 км 1/1 1500 м
[Cu hum Ci fib]
+25.6 +9.5 36 +26 +37 жарко 1018.0 991.6
С 3 40 км 1/1 1500 м
[Cu hum Ci fib]
+26.8 +9.7 34 +27 +38 жарко 1017.4 991.1
С 6 40 км 1/1 1500 м
[Cu hum Ci fib]
+27.1 +9.9 34 +28 +32 жарко 1016.8 990.6
С 5 40 км 1/1 1500 м
[Cu hum Ci fib]
+27.5 +10.3 34 +28 +33 жарко 1016.4 990.2
С 6 40 км 4/3 1500 м
[Cu hum Ci fib]
+28.0 +9.8 32 +28 +30 жарко 1015.8 989.7
С 8 30 км 6/4 1500 м
[Cu hum Ac trans Ci fib]
+26.5 +11.8 40 +28 +28 жарко 1015.9 989.7
С 8 30 км 6/3 1500 м
[Cu hum Ac trans Ci sp]
+25.9 +14.4 49 +28 +29 жарко 1015.8 989.5
С 8 40 км 6/1 1500 м
[Cu med, cong Ci sp]
+24.2 +14.3 54 +27 +27 жарко 1016.0 989.6
С 7 40 км 6/1 1500 м
[Cu med, cong Ci sp]
+22.5 +14.4 60 +26 +26 жарко 1016.0 989.4 +28.5
С 6 25 км 5/0
[Ci sp]
+21.7 +14.6 64 +25 +25 комфорт 1016.2 989.6
С 6 20 км 4/0
[Ci fib]
+21.2 +14.8 67 +24 +24 комфорт 1016.4 989.7
С 6 20 км 4/0
[Ci fib]
+20.7 +15.0 70 +23 +23 комфорт 1016.3 989.6
С 7 20 км 3/0
[Ci fib]
+20.5 +15.1 71 +23 +23 комфорт 1016.1 989.4
С 7 20 км 3/0
[Ci fib]
+20.2 +15.2 73 +22 +22 комфорт 1016.2 989.4
С 6 20 км 3/0
[Ci fib]
+19.5 +15.0 75 +21 +21 комфорт 1015.7 988.9
С 6 40 км 1/0
[Ci fib]
+19.1 +14.6 75 +20 +20 1015.0 988.2
С 6 40 км 1/0
[Ci fib]
+18.7 +14.4 76 +19 +19 1014.9 988.0
С 6 40 км 3/1 1500 м
[Sc Ac trans Ci fib]
+18.9 +14.2 74 +19 +19 1014.8 987.9
С 4 30 км 6/1 1500 м
[Sc Ac trans Cs]
+18.3 +14.0 76 +19 +19 1014.7 987.8
С 5 30 км 5/1 1500 м
[Cu hum Ac trans Ci sp]
+19.7 +14.1 70 +21 +22 комфорт 1014.0 987.2
С 8 40 км 4/0
[Ac trans Ci sp]
+20.8 +14.7 68 +23 +24 комфорт 1013.8 987.2 +18.3
С 8 40 км 4/0
[Ac trans Ci sp]
+21.5 +15.1 67 +25 +26 комфорт 1013.6 987.0
С 8 40 км 4/1 1500 м
[Cu hum Ac trans Ci fib]
+22.2 +15.6 66 +26 +27 душно 1013.5 987.0
С 8 40 км 5/3 750 м
[Cu hum Ac trans Ci fib]
+23.1 +15.7 63 +27 +29 душно 1012.9 986.5
С 8 40 км 5/3 1500 м
[Cu hum Ac trans Ci fib]
+24.0 +15.8 60 +27 +29 жарко 1012.5 986.2
С 6 40 км 4/1 1000 м
[Cu hum Ac cuf Ci fib]
+24.7 +15.9 58 +28 +32 душно 1012.1 985.9
С 6 40 км 5/3 1050 м
[Cu hum Ac cuf Ci fib]
+25.1 +15.4 55 +28 +31 жарко 1011.8 985.6
С 6 40 км 6/3 1500 м
[Cu med, cong Ac cuf Ci fib]
+26.2 +15.6 52 +29 +32 жарко 1011.3 985.2
С 6 40 км 6/3 1230 м
[Cu hum Ac trans Ci]
+25.3 +15.4 54 +28 +30 жарко 1011.1 984.9
С 7 40 км 6/3 1500 м
[Cu med, cong Ac trans Ci fib]
+25.5 +15.5 54 +29 +29 душно 1010.7 984.6
С 7 40 км 5/1 1500 м
[Cu Sc Ac trans Ci fib]
+24.6 +15.5 57 +28 +28 душно 1010.4 984.2
С 7 30 км 4/1 1500 м
[Sc diur, vesp Ac trans Ci fib]
+23.9 +15.9 61 +27 +27 жарко 1010.5 984.2
С 5 30 км 4/1 1500 м
[Sc Ac trans Ci fib]
+22.8 +16.1 66 +27 +27 душно 1010.7 984.3 +26.7
С 7 30 км 3/1 1500 м
[Sc Ci fib]
+22.2 +16.0 68 +26 +26 душно 1011.0 984.6
С 7 20 км 8/0
[Ac trans]
+21.5 +15.8 70 +25 +25 комфорт 1011.3 984.8
С 5 20 км 4/0
[Ac trans]
+21.1 +15.9 72 +24 +24 комфорт 1011.2 984.7
С 5 20 км ясно +20.8 +15.8 73 +24 +24 комфорт 1010.8 984.3
С 1 20 км ясно +19.0 +15.3 79 +21 +21 комфорт 1010.8 984.1
С 1 20 км ясно +19.1 +15.4 79 +22 +22 комфорт 1010.5 983.8
1 20 км ясно +18.0 +15.3 84 +19 +19 1010.5 983.7
С 1 20 км 1/0
[Ac trans]
+15.4 +14.6 95 +16 +16 1010.8 983.7
1 30 км 1/1 540 м
[St Ac trans Ci fib]
+16.9 +15.2 90 +18 +18 1010.6 983.7
Местоположение метеостанции Кошице (Словакия): широта 48.67 долгота 21.22 высота над уровнем моря 231 м.
В архиве по умолчанию представлена погода в Кошице за последнюю неделю. Архивные данные за месяц целиком и за предыдущие месяцы, начиная с января 2011 года, Вы можете получить, выбрав интересующий диапазон дат из раскрывающегося списка и нажав кнопку "Найти!".
*Определитесь, кто Вы:
Внимание! Время в таблицах - всемирное. Для получения местного времени необходимо прибавить поправку, которая равна 1 ч.
Смотрите также архив погоды в соседних городах и на ближайших метеорологических станциях:
Партнеры нашего сайта:      
Пояснения к столбцам:
  • Ветер - указаны скорость ветра в м/с - средняя за 10 мин, порывы в срок и между сроками (в фигурных скобках) и направление, откуда дует ветер: С - северный,
  • СВ - северо-восточный, В - восточный, ЮВ - юго-восточный, Ю - южный, ЮЗ - юго-западный, З - западный, СЗ - северо-западный.
  • Видимость - горизонтальная дальность видимости в метрах или километрах. При видимости от 1 до 10 км при отсутствии осадков обычно наблюдается дымка, при ухудшении видимости до 1 км и менее - туман. В сухую погоду видимость может ухудшаться дымом, пылью или мглою.
  • Явления - указаны атмосферные явления, наблюдавшиеся в срок или в последний час перед сроком; фигурными скобками обозначены явления, наблюдавшиеся между сроками (за 1-3 часа до срока); квадратными скобками обозначены град или гололедные отложения с указанием их диаметра в мм.
  • Облачность - указаны через наклонную черту общая и нижняя облачность в баллах и высота нижней границы облаков в метрах; квадратными скобками обозначены формы облаков: Ci - перистые, Cs - перисто-слоистые, Cc - перисто-кучевые, Ac - высококучевые, As - высокослоистые, Sc - слоисто-кучевые, Ns - слоисто-дождевые, Cu - кучевые, Cb - кучево-дождевые. Подробнее классификацию облаков см. в Атласе облаков (PDF).
  • T - Температура воздуха - температура, измеренная на высоте 2 м над землей.
  • Td - Температура точки росы - температура, при понижении до которой содержащийся в воздухе водяной пар достигнет насыщения.
  • f - Относительная влажность воздуха - влажноcть воздуха, измеренная на высоте 2 м над землей.
  • Te - Эффективная температура - температура, которую ощущает одетый по сезону человек в тени. Характеристика душности погоды. При расчете учитывается влияние влажности воздуха и скорости ветра на теплоощущения человека.
  • Tes - Эффективная температура на солнце - температура, которую ощущает человек, с поправкой на солнечный нагрев. Характеристика знойности погоды. Зависит от высоты солнца над горизонтом, облачности и скорости ветра. Ночью, в пасмурную погоду, а также при ветре 12 м/с и более поправка равна нулю.
  • P - Атмосферное давление - приведенное к уровню моря атмосферное давление.
  • Po - Атмосферное давление - измеренное на уровне метеостанции атмосферное давление.
  • Tmin - Минимальная температура - минимум температуры воздуха на высоте 2 м над землей.
  • Tmax - Максимальная температура - максимум температуры воздуха на высоте 2 м над землей.
  • R - Количество осадков - Количество выпавших осадков за период времени, мм. При наведении курсора мыши на число - период времени, за который выпало указанное количество осадков.
  • R24 - Количество осадков - Количество выпавших осадков за 24 часа, мм.
  • S - Снежный покров - Высота снежного покрова, см. При наведении курсора мыши на число - состояние снежного покрова и степень покрытия местности в баллах.